owner,sensor,date,latitude,longitude,air_temperature,qcFlag 
WAVCIS,ioos:station:WAVCIS:CSI15:1,2008-09-01T00:00:00Z,28.8332,-90.8320,31.21,11111222 
WAVCIS,ioos:station:WAVCIS:CSI15:1,2008-09-01T01:00:00Z,28.8332,-90.8320,31.36,11111222 
WAVCIS,ioos:station:WAVCIS:CSI15:1,2008-09-01T02:00:00Z,28.8332,-90.8320,29.54,11111222 
WAVCIS,ioos:station:WAVCIS:CSI15:1,2008-09-01T03:00:00Z,28.8332,-90.8320,29.4,11111222 
WAVCIS,ioos:station:WAVCIS:CSI15:1,2008-09-01T04:00:00Z,28.8332,-90.8320,26.02,11111222 
WAVCIS,ioos:station:WAVCIS:CSI15:1,2008-09-01T05:00:00Z,28.8332,-90.8320,28.14,11111222 
WAVCIS,ioos:station:WAVCIS:CSI15:1,2008-09-01T06:00:00Z,28.8332,-90.8320,28.26,11111222 
WAVCIS,ioos:station:WAVCIS:CSI15:1,2008-09-01T07:00:00Z,28.8332,-90.8320,28.25,11111222 
WAVCIS,ioos:station:WAVCIS:CSI15:1,2008-09-01T08:00:00Z,28.8332,-90.8320,27.7,11111222 
WAVCIS,ioos:station:WAVCIS:CSI15:1,2008-09-01T09:00:00Z,28.8332,-90.8320,27.14,11111222 
WAVCIS,ioos:station:WAVCIS:CSI15:1,2008-09-01T10:00:00Z,28.8332,-90.8320,26.95,11111222 
WAVCIS,ioos:station:WAVCIS:CSI15:1,2008-09-01T11:00:00Z,28.8332,-90.8320,26.33,11111222 
WAVCIS,ioos:station:WAVCIS:CSI15:1,2008-09-01T12:00:00Z,28.8332,-90.8320,25.79,11111222 
WAVCIS,ioos:station:WAVCIS:CSI15:1,2008-09-01T13:00:00Z,28.8332,-90.8320,25.62,11111222 
WAVCIS,ioos:station:WAVCIS:CSI15:1,2008-09-01T14:00:00Z,28.8332,-90.8320,26.05,11111222 
WAVCIS,ioos:station:WAVCIS:CSI15:1,2008-09-01T15:00:00Z,28.8332,-90.8320,25.76,11111222 
WAVCIS,ioos:station:WAVCIS:CSI15:1,2008-09-01T16:00:00Z,28.8332,-90.8320,25.85,11111222 
WAVCIS,ioos:station:WAVCIS:CSI15:1,2008-09-01T17:00:00Z,28.8332,-90.8320,26.06,11111222 
WAVCIS,ioos:station:WAVCIS:CSI15:1,2008-09-01T19:00:00Z,28.8332,-90.8320,25.71,11111222 
WAVCIS,ioos:station:WAVCIS:CSI15:1,2008-09-01T20:00:00Z,28.8332,-90.8320,26.28,11111222 
WAVCIS,ioos:station:WAVCIS:CSI15:1,2008-09-01T21:00:00Z,28.8332,-90.8320,27.82,11111222 
WAVCIS,ioos:station:WAVCIS:CSI15:1,2008-09-01T22:00:00Z,28.8332,-90.8320,28.43,11111222 
WAVCIS,ioos:station:WAVCIS:CSI15:1,2008-09-01T23:00:00Z,28.8332,-90.8320,29.09,11111222 
WAVCIS,ioos:station:WAVCIS:CSI15:1,2008-09-02T00:00:00Z,28.8332,-90.8320,29.23,11111222 
WAVCIS,ioos:station:WAVCIS:CSI15:1,2008-09-02T01:00:00Z,28.8332,-90.8320,29.28,11111222 
WAVCIS,ioos:station:WAVCIS:CSI15:1,2008-09-02T02:00:00Z,28.8332,-90.8320,29.51,11111222 
WAVCIS,ioos:station:WAVCIS:CSI15:1,2008-09-02T03:00:00Z,28.8332,-90.8320,28.91,11111222 
WAVCIS,ioos:station:WAVCIS:CSI15:1,2008-09-02T04:00:00Z,28.8332,-90.8320,29.24,11111222 
WAVCIS,ioos:station:WAVCIS:CSI15:1,2008-09-02T05:00:00Z,28.8332,-90.8320,28.99,11111222 
WAVCIS,ioos:station:WAVCIS:CSI15:1,2008-09-02T06:00:00Z,28.8332,-90.8320,28.12,11111222 
WAVCIS,ioos:station:WAVCIS:CSI15:1,2008-09-02T07:00:00Z,28.8332,-90.8320,28.58,11111222 
WAVCIS,ioos:station:WAVCIS:CSI15:1,2008-09-02T08:00:00Z,28.8332,-90.8320,28.9,11111222 
WAVCIS,ioos:station:WAVCIS:CSI15:1,2008-09-02T09:00:00Z,28.8332,-90.8320,28.96,11111222 
WAVCIS,ioos:station:WAVCIS:CSI15:1,2008-09-02T10:00:00Z,28.8332,-90.8320,28.96,11111222 
WAVCIS,ioos:station:WAVCIS:CSI15:1,2008-09-02T11:00:00Z,28.8332,-90.8320,29.02,11111222 
WAVCIS,ioos:station:WAVCIS:CSI15:1,2008-09-02T12:00:00Z,28.8332,-90.8320,29.0,11111222 
WAVCIS,ioos:station:WAVCIS:CSI15:1,2008-09-02T13:00:00Z,28.8332,-90.8320,29.04,11111222 
WAVCIS,ioos:station:WAVCIS:CSI15:1,2008-09-02T15:00:00Z,28.8332,-90.8320,28.95,11111222 
WAVCIS,ioos:station:WAVCIS:CSI15:1,2008-09-02T16:00:00Z,28.8332,-90.8320,28.98,11111222 
WAVCIS,ioos:station:WAVCIS:CSI15:1,2008-09-02T17:00:00Z,28.8332,-90.8320,29.13,11111222 
WAVCIS,ioos:station:WAVCIS:CSI15:1,2008-09-02T18:00:00Z,28.8332,-90.8320,29.24,11111222 
WAVCIS,ioos:station:WAVCIS:CSI15:1,2008-09-02T19:00:00Z,28.8332,-90.8320,29.29,11111222 
WAVCIS,ioos:station:WAVCIS:CSI15:1,2008-09-02T20:00:00Z,28.8332,-90.8320,29.28,11111222 
WAVCIS,ioos:station:WAVCIS:CSI15:1,2008-09-02T21:00:00Z,28.8332,-90.8320,28.18,11111222 
WAVCIS,ioos:station:WAVCIS:CSI15:1,2008-09-02T22:00:00Z,28.8332,-90.8320,28.32,11111222 
WAVCIS,ioos:station:WAVCIS:CSI15:1,2008-09-02T23:00:00Z,28.8332,-90.8320,28.88,11111222 
WAVCIS,ioos:station:WAVCIS:CSI15:1,2008-09-03T00:00:00Z,28.8332,-90.8320,28.91,11111222 
WAVCIS,ioos:station:WAVCIS:CSI15:1,2008-09-03T01:00:00Z,28.8332,-90.8320,28.55,11111222 
WAVCIS,ioos:station:WAVCIS:CSI15:1,2008-09-03T02:00:00Z,28.8332,-90.8320,28.67,11111222 
WAVCIS,ioos:station:WAVCIS:CSI15:1,2008-09-03T03:00:00Z,28.8332,-90.8320,28.83,11111222 
WAVCIS,ioos:station:WAVCIS:CSI15:1,2008-09-03T04:00:00Z,28.8332,-90.8320,28.78,11111222 
WAVCIS,ioos:station:WAVCIS:CSI15:1,2008-09-03T05:00:00Z,28.8332,-90.8320,28.66,11111222 
WAVCIS,ioos:station:WAVCIS:CSI15:1,2008-09-03T06:00:00Z,28.8332,-90.8320,28.57,11111222 
WAVCIS,ioos:station:WAVCIS:CSI15:1,2008-09-03T07:00:00Z,28.8332,-90.8320,28.46,11111222 
WAVCIS,ioos:station:WAVCIS:CSI15:1,2008-09-03T08:00:00Z,28.8332,-90.8320,28.37,11111222 
WAVCIS,ioos:station:WAVCIS:CSI15:1,2008-09-03T09:00:00Z,28.8332,-90.8320,28.3,11111222 
WAVCIS,ioos:station:WAVCIS:CSI15:1,2008-09-03T10:00:00Z,28.8332,-90.8320,28.24,11111222 
WAVCIS,ioos:station:WAVCIS:CSI15:1,2008-09-03T11:00:00Z,28.8332,-90.8320,28.4,11111222 
WAVCIS,ioos:station:WAVCIS:CSI15:1,2008-09-03T12:00:00Z,28.8332,-90.8320,28.3,11111222 
WAVCIS,ioos:station:WAVCIS:CSI15:1,2008-09-03T13:00:00Z,28.8332,-90.8320,28.66,11111222 
WAVCIS,ioos:station:WAVCIS:CSI15:1,2008-09-03T14:00:00Z,28.8332,-90.8320,28.53,11111222 
WAVCIS,ioos:station:WAVCIS:CSI15:1,2008-09-03T15:00:00Z,28.8332,-90.8320,28.65,11111222 
WAVCIS,ioos:station:WAVCIS:CSI15:1,2008-09-03T16:00:00Z,28.8332,-90.8320,28.56,11111222 
WAVCIS,ioos:station:WAVCIS:CSI15:1,2008-09-03T17:00:00Z,28.8332,-90.8320,29.02,11111222 
WAVCIS,ioos:station:WAVCIS:CSI15:1,2008-09-03T18:00:00Z,28.8332,-90.8320,29.62,11111222 
WAVCIS,ioos:station:WAVCIS:CSI15:1,2008-09-03T19:00:00Z,28.8332,-90.8320,29.26,11111222 
WAVCIS,ioos:station:WAVCIS:CSI15:1,2008-09-03T20:00:00Z,28.8332,-90.8320,29.62,11111222 
WAVCIS,ioos:station:WAVCIS:CSI15:1,2008-09-03T21:00:00Z,28.8332,-90.8320,29.41,11111222 
WAVCIS,ioos:station:WAVCIS:CSI15:1,2008-09-03T22:00:00Z,28.8332,-90.8320,28.21,11111222 
WAVCIS,ioos:station:WAVCIS:CSI15:1,2008-09-03T23:00:00Z,28.8332,-90.8320,28.49,11111222 
WAVCIS,ioos:station:WAVCIS:CSI15:1,2008-09-04T00:00:00Z,28.8332,-90.8320,28.25,11111222 
WAVCIS,ioos:station:WAVCIS:CSI15:1,2008-09-04T01:00:00Z,28.8332,-90.8320,28.41,11111222 
WAVCIS,ioos:station:WAVCIS:CSI15:1,2008-09-04T02:00:00Z,28.8332,-90.8320,28.84,11111222 
WAVCIS,ioos:station:WAVCIS:CSI15:1,2008-09-04T03:00:00Z,28.8332,-90.8320,28.66,11111222 
WAVCIS,ioos:station:WAVCIS:CSI15:1,2008-09-04T04:00:00Z,28.8332,-90.8320,28.71,11111222 
WAVCIS,ioos:station:WAVCIS:CSI15:1,2008-09-04T05:00:00Z,28.8332,-90.8320,28.65,11111222 
WAVCIS,ioos:station:WAVCIS:CSI15:1,2008-09-04T06:00:00Z,28.8332,-90.8320,28.57,11111222 
WAVCIS,ioos:station:WAVCIS:CSI15:1,2008-09-04T07:00:00Z,28.8332,-90.8320,28.67,11111222 
WAVCIS,ioos:station:WAVCIS:CSI15:1,2008-09-04T08:00:00Z,28.8332,-90.8320,28.67,11111222 
WAVCIS,ioos:station:WAVCIS:CSI15:1,2008-09-04T09:00:00Z,28.8332,-90.8320,28.83,11111222 
WAVCIS,ioos:station:WAVCIS:CSI15:1,2008-09-04T10:00:00Z,28.8332,-90.8320,28.78,11111222 
WAVCIS,ioos:station:WAVCIS:CSI15:1,2008-09-04T11:00:00Z,28.8332,-90.8320,28.97,11111222 
WAVCIS,ioos:station:WAVCIS:CSI15:1,2008-09-04T12:00:00Z,28.8332,-90.8320,28.86,11111222 
WAVCIS,ioos:station:WAVCIS:CSI15:1,2008-09-04T13:00:00Z,28.8332,-90.8320,29.16,11111222 
WAVCIS,ioos:station:WAVCIS:CSI15:1,2008-09-04T14:00:00Z,28.8332,-90.8320,29.1,11111222 
WAVCIS,ioos:station:WAVCIS:CSI15:1,2008-09-04T15:00:00Z,28.8332,-90.8320,29.0,11111222 
WAVCIS,ioos:station:WAVCIS:CSI15:1,2008-09-04T16:00:00Z,28.8332,-90.8320,29.11,11111222 
WAVCIS,ioos:station:WAVCIS:CSI15:1,2008-09-04T17:00:00Z,28.8332,-90.8320,29.15,11111222 
WAVCIS,ioos:station:WAVCIS:CSI15:1,2008-09-04T18:00:00Z,28.8332,-90.8320,29.26,11111222 
WAVCIS,ioos:station:WAVCIS:CSI15:1,2008-09-04T19:00:00Z,28.8332,-90.8320,28.99,11111222 
WAVCIS,ioos:station:WAVCIS:CSI15:1,2008-09-04T20:00:00Z,28.8332,-90.8320,27.25,11111222 
WAVCIS,ioos:station:WAVCIS:CSI15:1,2008-09-04T21:00:00Z,28.8332,-90.8320,28.61,11111222 
WAVCIS,ioos:station:WAVCIS:CSI15:1,2008-09-04T22:00:00Z,28.8332,-90.8320,29.1,11111222 
WAVCIS,ioos:station:WAVCIS:CSI15:1,2008-09-04T23:00:00Z,28.8332,-90.8320,29.29,11111222 
WAVCIS,ioos:station:WAVCIS:CSI15:1,2008-09-05T00:00:00Z,28.8332,-90.8320,29.04,11111222 
WAVCIS,ioos:station:WAVCIS:CSI15:1,2008-09-05T01:00:00Z,28.8332,-90.8320,29.03,11111222 
WAVCIS,ioos:station:WAVCIS:CSI15:1,2008-09-05T02:00:00Z,28.8332,-90.8320,28.82,11111222 
WAVCIS,ioos:station:WAVCIS:CSI15:1,2008-09-05T03:00:00Z,28.8332,-90.8320,28.8,11111222 
WAVCIS,ioos:station:WAVCIS:CSI15:1,2008-09-05T04:00:00Z,28.8332,-90.8320,28.54,11111222 
WAVCIS,ioos:station:WAVCIS:CSI15:1,2008-09-05T05:00:00Z,28.8332,-90.8320,28.57,11111222 
WAVCIS,ioos:station:WAVCIS:CSI15:1,2008-09-05T06:00:00Z,28.8332,-90.8320,28.37,11111222 
WAVCIS,ioos:station:WAVCIS:CSI15:1,2008-09-05T07:00:00Z,28.8332,-90.8320,28.35,11111222 
WAVCIS,ioos:station:WAVCIS:CSI15:1,2008-09-05T08:00:00Z,28.8332,-90.8320,27.61,11111222 
WAVCIS,ioos:station:WAVCIS:CSI15:1,2008-09-05T09:00:00Z,28.8332,-90.8320,28.31,11111222 
WAVCIS,ioos:station:WAVCIS:CSI15:1,2008-09-05T10:00:00Z,28.8332,-90.8320,26.84,11111222 
WAVCIS,ioos:station:WAVCIS:CSI15:1,2008-09-05T11:00:00Z,28.8332,-90.8320,26.28,11111222 
WAVCIS,ioos:station:WAVCIS:CSI15:1,2008-09-05T12:00:00Z,28.8332,-90.8320,26.03,11111222 
WAVCIS,ioos:station:WAVCIS:CSI15:1,2008-09-05T13:00:00Z,28.8332,-90.8320,26.04,11111222 
WAVCIS,ioos:station:WAVCIS:CSI15:1,2008-09-05T14:00:00Z,28.8332,-90.8320,26.06,11111222 
WAVCIS,ioos:station:WAVCIS:CSI15:1,2008-09-05T15:00:00Z,28.8332,-90.8320,26.25,11111222 
WAVCIS,ioos:station:WAVCIS:CSI15:1,2008-09-05T16:00:00Z,28.8332,-90.8320,26.61,11111222 
WAVCIS,ioos:station:WAVCIS:CSI15:1,2008-09-05T17:00:00Z,28.8332,-90.8320,27.1,11111222 
WAVCIS,ioos:station:WAVCIS:CSI15:1,2008-09-05T18:00:00Z,28.8332,-90.8320,27.25,11111222 
WAVCIS,ioos:station:WAVCIS:CSI15:1,2008-09-05T19:00:00Z,28.8332,-90.8320,27.75,11111222 
WAVCIS,ioos:station:WAVCIS:CSI15:1,2008-09-05T20:00:00Z,28.8332,-90.8320,27.82,11111222 
WAVCIS,ioos:station:WAVCIS:CSI15:1,2008-09-05T21:00:00Z,28.8332,-90.8320,28.11,11111222 
WAVCIS,ioos:station:WAVCIS:CSI15:1,2008-09-05T22:00:00Z,28.8332,-90.8320,27.5,11111222 
WAVCIS,ioos:station:WAVCIS:CSI15:1,2008-09-05T23:00:00Z,28.8332,-90.8320,27.73,11111222 
WAVCIS,ioos:station:WAVCIS:CSI15:1,2008-09-06T00:00:00Z,28.8332,-90.8320,27.63,11111222 
WAVCIS,ioos:station:WAVCIS:CSI15:1,2008-09-06T01:00:00Z,28.8332,-90.8320,27.75,11111222 
WAVCIS,ioos:station:WAVCIS:CSI15:1,2008-09-06T02:00:00Z,28.8332,-90.8320,28.39,11111222 
WAVCIS,ioos:station:WAVCIS:CSI15:1,2008-09-06T03:00:00Z,28.8332,-90.8320,28.38,11111222 
WAVCIS,ioos:station:WAVCIS:CSI15:1,2008-09-06T04:00:00Z,28.8332,-90.8320,27.92,11111222 
WAVCIS,ioos:station:WAVCIS:CSI15:1,2008-09-06T05:00:00Z,28.8332,-90.8320,27.3,11111222 
WAVCIS,ioos:station:WAVCIS:CSI15:1,2008-09-06T06:00:00Z,28.8332,-90.8320,26.73,11111222 
WAVCIS,ioos:station:WAVCIS:CSI15:1,2008-09-06T07:00:00Z,28.8332,-90.8320,26.11,11111222 
WAVCIS,ioos:station:WAVCIS:CSI15:1,2008-09-06T08:00:00Z,28.8332,-90.8320,25.68,11111222 
WAVCIS,ioos:station:WAVCIS:CSI15:1,2008-09-06T09:00:00Z,28.8332,-90.8320,25.47,11111222 
WAVCIS,ioos:station:WAVCIS:CSI15:1,2008-09-06T10:00:00Z,28.8332,-90.8320,25.29,11111222 
WAVCIS,ioos:station:WAVCIS:CSI15:1,2008-09-06T13:00:00Z,28.8332,-90.8320,26.02,11111222 
WAVCIS,ioos:station:WAVCIS:CSI15:1,2008-09-06T14:00:00Z,28.8332,-90.8320,26.33,11111222 
WAVCIS,ioos:station:WAVCIS:CSI15:1,2008-09-06T15:00:00Z,28.8332,-90.8320,26.23,11111222 
WAVCIS,ioos:station:WAVCIS:CSI15:1,2008-09-06T16:00:00Z,28.8332,-90.8320,26.22,11111222 
WAVCIS,ioos:station:WAVCIS:CSI15:1,2008-09-06T17:00:00Z,28.8332,-90.8320,26.52,11111222 
WAVCIS,ioos:station:WAVCIS:CSI15:1,2008-09-06T18:00:00Z,28.8332,-90.8320,27.02,11111222 
WAVCIS,ioos:station:WAVCIS:CSI15:1,2008-09-06T19:00:00Z,28.8332,-90.8320,26.94,11111222 
WAVCIS,ioos:station:WAVCIS:CSI15:1,2008-09-06T20:00:00Z,28.8332,-90.8320,27.44,11111222 
WAVCIS,ioos:station:WAVCIS:CSI15:1,2008-09-06T21:00:00Z,28.8332,-90.8320,27.71,11111222 
WAVCIS,ioos:station:WAVCIS:CSI15:1,2008-09-06T22:00:00Z,28.8332,-90.8320,28.34,11111222 
WAVCIS,ioos:station:WAVCIS:CSI15:1,2008-09-06T23:00:00Z,28.8332,-90.8320,29.02,11111222 
WAVCIS,ioos:station:WAVCIS:CSI15:1,2008-09-07T00:00:00Z,28.8332,-90.8320,28.81,11111222 
WAVCIS,ioos:station:WAVCIS:CSI15:1,2008-09-07T01:00:00Z,28.8332,-90.8320,27.77,11111222 
WAVCIS,ioos:station:WAVCIS:CSI15:1,2008-09-07T02:00:00Z,28.8332,-90.8320,27.99,11111222 
WAVCIS,ioos:station:WAVCIS:CSI15:1,2008-09-07T03:00:00Z,28.8332,-90.8320,28.1,11111222 
WAVCIS,ioos:station:WAVCIS:CSI15:1,2008-09-07T04:00:00Z,28.8332,-90.8320,28.04,11111222 
WAVCIS,ioos:station:WAVCIS:CSI15:1,2008-09-07T05:00:00Z,28.8332,-90.8320,27.94,11111222 
WAVCIS,ioos:station:WAVCIS:CSI15:1,2008-09-07T06:00:00Z,28.8332,-90.8320,28.24,11111222 
WAVCIS,ioos:station:WAVCIS:CSI15:1,2008-09-07T07:00:00Z,28.8332,-90.8320,28.22,11111222 
WAVCIS,ioos:station:WAVCIS:CSI15:1,2008-09-07T08:00:00Z,28.8332,-90.8320,28.21,11111222 
WAVCIS,ioos:station:WAVCIS:CSI15:1,2008-09-07T09:00:00Z,28.8332,-90.8320,28.25,11111222 
WAVCIS,ioos:station:WAVCIS:CSI15:1,2008-09-07T10:00:00Z,28.8332,-90.8320,27.98,11111222 
WAVCIS,ioos:station:WAVCIS:CSI15:1,2008-09-07T11:00:00Z,28.8332,-90.8320,28.55,11111222 
WAVCIS,ioos:station:WAVCIS:CSI15:1,2008-09-07T12:00:00Z,28.8332,-90.8320,28.44,11111222 
WAVCIS,ioos:station:WAVCIS:CSI15:1,2008-09-07T13:00:00Z,28.8332,-90.8320,29.73,11111222 
WAVCIS,ioos:station:WAVCIS:CSI15:1,2008-09-07T14:00:00Z,28.8332,-90.8320,29.72,11111222 
WAVCIS,ioos:station:WAVCIS:CSI15:1,2008-09-07T15:00:00Z,28.8332,-90.8320,29.68,11111222 
WAVCIS,ioos:station:WAVCIS:CSI15:1,2008-09-07T16:00:00Z,28.8332,-90.8320,30.09,11111222 
WAVCIS,ioos:station:WAVCIS:CSI15:1,2008-09-07T17:00:00Z,28.8332,-90.8320,29.9,11111222 
WAVCIS,ioos:station:WAVCIS:CSI15:1,2008-09-07T18:00:00Z,28.8332,-90.8320,30.2,11111222 
WAVCIS,ioos:station:WAVCIS:CSI15:1,2008-09-07T19:00:00Z,28.8332,-90.8320,30.2,11111222 
WAVCIS,ioos:station:WAVCIS:CSI15:1,2008-09-07T20:00:00Z,28.8332,-90.8320,30.33,11111222 
WAVCIS,ioos:station:WAVCIS:CSI15:1,2008-09-07T21:00:00Z,28.8332,-90.8320,30.23,11111222 
WAVCIS,ioos:station:WAVCIS:CSI15:1,2008-09-07T22:00:00Z,28.8332,-90.8320,30.59,11111222 
WAVCIS,ioos:station:WAVCIS:CSI15:1,2008-09-07T23:00:00Z,28.8332,-90.8320,30.3,11111222 
WAVCIS,ioos:station:WAVCIS:CSI15:1,2008-09-08T00:00:00Z,28.8332,-90.8320,30.17,11111222 
WAVCIS,ioos:station:WAVCIS:CSI15:1,2008-09-08T01:00:00Z,28.8332,-90.8320,29.98,11111222 
WAVCIS,ioos:station:WAVCIS:CSI15:1,2008-09-08T02:00:00Z,28.8332,-90.8320,30.17,11111222 
WAVCIS,ioos:station:WAVCIS:CSI15:1,2008-09-08T03:00:00Z,28.8332,-90.8320,30.01,11111222 
WAVCIS,ioos:station:WAVCIS:CSI15:1,2008-09-08T04:00:00Z,28.8332,-90.8320,29.95,11111222 
WAVCIS,ioos:station:WAVCIS:CSI15:1,2008-09-08T05:00:00Z,28.8332,-90.8320,29.77,11111222 
WAVCIS,ioos:station:WAVCIS:CSI15:1,2008-09-08T06:00:00Z,28.8332,-90.8320,29.65,11111222 
WAVCIS,ioos:station:WAVCIS:CSI15:1,2008-09-08T07:00:00Z,28.8332,-90.8320,29.7,11111222 
WAVCIS,ioos:station:WAVCIS:CSI15:1,2008-09-08T08:00:00Z,28.8332,-90.8320,29.8,11111222 
WAVCIS,ioos:station:WAVCIS:CSI15:1,2008-09-08T09:00:00Z,28.8332,-90.8320,29.87,11111222 
WAVCIS,ioos:station:WAVCIS:CSI15:1,2008-09-08T10:00:00Z,28.8332,-90.8320,29.76,11111222 
WAVCIS,ioos:station:WAVCIS:CSI15:1,2008-09-08T11:00:00Z,28.8332,-90.8320,29.84,11111222 
WAVCIS,ioos:station:WAVCIS:CSI15:1,2008-09-08T12:00:00Z,28.8332,-90.8320,29.94,11111222 
WAVCIS,ioos:station:WAVCIS:CSI15:1,2008-09-08T13:00:00Z,28.8332,-90.8320,30.32,11111222 
WAVCIS,ioos:station:WAVCIS:CSI15:1,2008-09-08T14:00:00Z,28.8332,-90.8320,30.34,11111222 
WAVCIS,ioos:station:WAVCIS:CSI15:1,2008-09-08T15:00:00Z,28.8332,-90.8320,30.6,11111222 
WAVCIS,ioos:station:WAVCIS:CSI15:1,2008-09-08T16:00:00Z,28.8332,-90.8320,30.7,11111222 
WAVCIS,ioos:station:WAVCIS:CSI15:1,2008-09-08T17:00:00Z,28.8332,-90.8320,30.71,11111222 
WAVCIS,ioos:station:WAVCIS:CSI15:1,2008-09-08T18:00:00Z,28.8332,-90.8320,30.85,11111222 
WAVCIS,ioos:station:WAVCIS:CSI15:1,2008-09-08T19:00:00Z,28.8332,-90.8320,30.97,11111222 
WAVCIS,ioos:station:WAVCIS:CSI15:1,2008-09-08T20:00:00Z,28.8332,-90.8320,30.83,11111222 
WAVCIS,ioos:station:WAVCIS:CSI15:1,2008-09-08T21:00:00Z,28.8332,-90.8320,30.83,11111222 
WAVCIS,ioos:station:WAVCIS:CSI15:1,2008-09-08T22:00:00Z,28.8332,-90.8320,30.83,11111222 
WAVCIS,ioos:station:WAVCIS:CSI15:1,2008-09-08T23:00:00Z,28.8332,-90.8320,30.82,11111222 
WAVCIS,ioos:station:WAVCIS:CSI15:1,2008-09-09T00:00:00Z,28.8332,-90.8320,30.4,11111222 
WAVCIS,ioos:station:WAVCIS:CSI15:1,2008-09-09T01:00:00Z,28.8332,-90.8320,30.27,11111222 
WAVCIS,ioos:station:WAVCIS:CSI15:1,2008-09-09T02:00:00Z,28.8332,-90.8320,30.21,11111222 
WAVCIS,ioos:station:WAVCIS:CSI15:1,2008-09-09T03:00:00Z,28.8332,-90.8320,30.25,11111222 
WAVCIS,ioos:station:WAVCIS:CSI15:1,2008-09-09T04:00:00Z,28.8332,-90.8320,30.36,11111222 
WAVCIS,ioos:station:WAVCIS:CSI15:1,2008-09-09T05:00:00Z,28.8332,-90.8320,30.25,11111222 
WAVCIS,ioos:station:WAVCIS:CSI15:1,2008-09-09T06:00:00Z,28.8332,-90.8320,30.26,11111222 
WAVCIS,ioos:station:WAVCIS:CSI15:1,2008-09-09T07:00:00Z,28.8332,-90.8320,30.25,11111222 
WAVCIS,ioos:station:WAVCIS:CSI15:1,2008-09-09T08:00:00Z,28.8332,-90.8320,30.27,11111222 
WAVCIS,ioos:station:WAVCIS:CSI15:1,2008-09-09T09:00:00Z,28.8332,-90.8320,30.34,11111222 
WAVCIS,ioos:station:WAVCIS:CSI15:1,2008-09-09T10:00:00Z,28.8332,-90.8320,30.35,11111222 
WAVCIS,ioos:station:WAVCIS:CSI15:1,2008-09-09T11:00:00Z,28.8332,-90.8320,30.3,11111222 
WAVCIS,ioos:station:WAVCIS:CSI15:1,2008-09-09T12:00:00Z,28.8332,-90.8320,30.27,11111222 
WAVCIS,ioos:station:WAVCIS:CSI15:1,2008-09-09T19:00:00Z,28.8332,-90.8320,30.8,11111222 
WAVCIS,ioos:station:WAVCIS:CSI15:1,2008-09-09T20:00:00Z,28.8332,-90.8320,30.87,11111222 
WAVCIS,ioos:station:WAVCIS:CSI15:1,2008-09-09T21:00:00Z,28.8332,-90.8320,31.09,11111222 
WAVCIS,ioos:station:WAVCIS:CSI15:1,2008-09-09T22:00:00Z,28.8332,-90.8320,27.42,11111222 
WAVCIS,ioos:station:WAVCIS:CSI15:1,2008-09-09T23:00:00Z,28.8332,-90.8320,31.36,11111222 
WAVCIS,ioos:station:WAVCIS:CSI15:1,2008-09-10T00:00:00Z,28.8332,-90.8320,30.92,11111222 
WAVCIS,ioos:station:WAVCIS:CSI15:1,2008-09-10T01:00:00Z,28.8332,-90.8320,30.87,11111222 
WAVCIS,ioos:station:WAVCIS:CSI15:1,2008-09-10T02:00:00Z,28.8332,-90.8320,30.91,11111222 
WAVCIS,ioos:station:WAVCIS:CSI15:1,2008-09-10T03:00:00Z,28.8332,-90.8320,31.01,11111222 
WAVCIS,ioos:station:WAVCIS:CSI15:1,2008-09-10T04:00:00Z,28.8332,-90.8320,30.73,11111222 
WAVCIS,ioos:station:WAVCIS:CSI15:1,2008-09-10T05:00:00Z,28.8332,-90.8320,30.8,11111222 
WAVCIS,ioos:station:WAVCIS:CSI15:1,2008-09-10T06:00:00Z,28.8332,-90.8320,30.63,11111222 
WAVCIS,ioos:station:WAVCIS:CSI15:1,2008-09-10T07:00:00Z,28.8332,-90.8320,30.49,11111222 
WAVCIS,ioos:station:WAVCIS:CSI15:1,2008-09-10T08:00:00Z,28.8332,-90.8320,30.37,11111222 
WAVCIS,ioos:station:WAVCIS:CSI15:1,2008-09-10T09:00:00Z,28.8332,-90.8320,30.38,11111222 
WAVCIS,ioos:station:WAVCIS:CSI15:1,2008-09-10T10:00:00Z,28.8332,-90.8320,30.38,11111222 
WAVCIS,ioos:station:WAVCIS:CSI15:1,2008-09-10T11:00:00Z,28.8332,-90.8320,30.35,11111222 
WAVCIS,ioos:station:WAVCIS:CSI15:1,2008-09-10T12:00:00Z,28.8332,-90.8320,30.43,11111222 
WAVCIS,ioos:station:WAVCIS:CSI15:1,2008-09-10T13:00:00Z,28.8332,-90.8320,30.8,11111222 
WAVCIS,ioos:station:WAVCIS:CSI15:1,2008-09-10T14:00:00Z,28.8332,-90.8320,30.89,11111222 
WAVCIS,ioos:station:WAVCIS:CSI15:1,2008-09-10T15:00:00Z,28.8332,-90.8320,30.79,11111222 
WAVCIS,ioos:station:WAVCIS:CSI15:1,2008-09-10T16:00:00Z,28.8332,-90.8320,30.72,11111222 
WAVCIS,ioos:station:WAVCIS:CSI15:1,2008-09-10T17:00:00Z,28.8332,-90.8320,31.25,11111222 
WAVCIS,ioos:station:WAVCIS:CSI15:1,2008-09-10T18:00:00Z,28.8332,-90.8320,31.28,11111222 
WAVCIS,ioos:station:WAVCIS:CSI15:1,2008-09-10T19:00:00Z,28.8332,-90.8320,31.26,11111222 
WAVCIS,ioos:station:WAVCIS:CSI15:1,2008-09-10T20:00:00Z,28.8332,-90.8320,31.37,11111222 
WAVCIS,ioos:station:WAVCIS:CSI15:1,2008-09-10T21:00:00Z,28.8332,-90.8320,31.48,11111222 
WAVCIS,ioos:station:WAVCIS:CSI15:1,2008-09-10T22:00:00Z,28.8332,-90.8320,31.53,11111222 
WAVCIS,ioos:station:WAVCIS:CSI15:1,2008-09-10T23:00:00Z,28.8332,-90.8320,31.61,11111222 
WAVCIS,ioos:station:WAVCIS:CSI15:1,2008-09-11T00:00:00Z,28.8332,-90.8320,31.44,11111222 
WAVCIS,ioos:station:WAVCIS:CSI15:1,2008-09-11T01:00:00Z,28.8332,-90.8320,31.26,11111222 
WAVCIS,ioos:station:WAVCIS:CSI15:1,2008-09-11T02:00:00Z,28.8332,-90.8320,31.02,11111222 
WAVCIS,ioos:station:WAVCIS:CSI15:1,2008-09-11T03:00:00Z,28.8332,-90.8320,30.76,11111222 
WAVCIS,ioos:station:WAVCIS:CSI15:1,2008-09-11T04:00:00Z,28.8332,-90.8320,30.46,11111222 
WAVCIS,ioos:station:WAVCIS:CSI15:1,2008-09-11T05:00:00Z,28.8332,-90.8320,30.12,11111222 
WAVCIS,ioos:station:WAVCIS:CSI15:1,2008-09-11T06:00:00Z,28.8332,-90.8320,28.54,11111222 
WAVCIS,ioos:station:WAVCIS:CSI15:1,2008-09-11T07:00:00Z,28.8332,-90.8320,28.17,11111222 
WAVCIS,ioos:station:WAVCIS:CSI15:1,2008-09-11T08:00:00Z,28.8332,-90.8320,19.86,11111222 
WAVCIS,ioos:station:WAVCIS:CSI15:1,2008-09-11T10:00:00Z,28.8332,-90.8320,12.63,11111222 
WAVCIS,ioos:station:WAVCIS:CSI15:1,2008-09-11T11:00:00Z,28.8332,-90.8320,4.271,11111222 
WAVCIS,ioos:station:WAVCIS:CSI15:1,2008-09-11T12:00:00Z,28.8332,-90.8320,6.841,11111222 
WAVCIS,ioos:station:WAVCIS:CSI15:1,2008-09-11T13:00:00Z,28.8332,-90.8320,5.433,11111222 
WAVCIS,ioos:station:WAVCIS:CSI15:1,2008-09-11T14:00:00Z,28.8332,-90.8320,3.56,11111222 
WAVCIS,ioos:station:WAVCIS:CSI15:1,2008-09-11T15:00:00Z,28.8332,-90.8320,2.275,11111222 
WAVCIS,ioos:station:WAVCIS:CSI15:1,2008-09-11T16:00:00Z,28.8332,-90.8320,36.86,11111222 
WAVCIS,ioos:station:WAVCIS:CSI15:1,2008-09-11T17:00:00Z,28.8332,-90.8320,-9999.0,1111122 
WAVCIS,ioos:station:WAVCIS:CSI15:1,2008-09-11T18:00:00Z,28.8332,-90.8320,40.62,11111222 
WAVCIS,ioos:station:WAVCIS:CSI15:1,2008-09-11T19:00:00Z,28.8332,-90.8320,79.4,11144222 
WAVCIS,ioos:station:WAVCIS:CSI15:1,2008-09-11T20:00:00Z,28.8332,-90.8320,71.1,11144222 
WAVCIS,ioos:station:WAVCIS:CSI15:1,2008-09-11T21:00:00Z,28.8332,-90.8320,-9999.0,1111122 
WAVCIS,ioos:station:WAVCIS:CSI15:1,2008-09-11T22:00:00Z,28.8332,-90.8320,-9999.0,1111122 
WAVCIS,ioos:station:WAVCIS:CSI15:1,2008-09-11T23:00:00Z,28.8332,-90.8320,44.47,11133222 
WAVCIS,ioos:station:WAVCIS:CSI15:1,2008-09-12T02:00:00Z,28.8332,-90.8320,15.24,11111222 
WAVCIS,ioos:station:WAVCIS:CSI15:1,2008-09-12T03:00:00Z,28.8332,-90.8320,6.227,11111222 
WAVCIS,ioos:station:WAVCIS:CSI15:1,2008-09-12T04:00:00Z,28.8332,-90.8320,-2.12,11133222 
WAVCIS,ioos:station:WAVCIS:CSI15:1,2008-09-12T05:00:00Z,28.8332,-90.8320,-9.15,11133222 
WAVCIS,ioos:station:WAVCIS:CSI15:1,2008-09-12T08:00:00Z,28.8332,-90.8320,-9999.0,1111122 
WAVCIS,ioos:station:WAVCIS:CSI15:1,2008-09-12T09:00:00Z,28.8332,-90.8320,-9999.0,1111122 
WAVCIS,ioos:station:WAVCIS:CSI15:1,2008-09-12T10:00:00Z,28.8332,-90.8320,-9999.0,1111122 
WAVCIS,ioos:station:WAVCIS:CSI15:1,2008-09-12T11:00:00Z,28.8332,-90.8320,-9999.0,1111122 
WAVCIS,ioos:station:WAVCIS:CSI15:1,2008-09-12T12:00:00Z,28.8332,-90.8320,-9999.0,1111122 
WAVCIS,ioos:station:WAVCIS:CSI15:1,2008-09-12T13:00:00Z,28.8332,-90.8320,-9999.0,1111122 
WAVCIS,ioos:station:WAVCIS:CSI15:1,2008-09-12T14:00:00Z,28.8332,-90.8320,-9999.0,1111122 
WAVCIS,ioos:station:WAVCIS:CSI15:1,2008-09-12T15:00:00Z,28.8332,-90.8320,-9999.0,1111122 
WAVCIS,ioos:station:WAVCIS:CSI15:1,2008-09-23T19:00:00Z,28.8332,-90.8320,30.14,11111222 
WAVCIS,ioos:station:WAVCIS:CSI15:1,2008-09-24T06:00:00Z,28.8332,-90.8320,30.01,11111222 
WAVCIS,ioos:station:WAVCIS:CSI15:1,2008-09-24T07:00:00Z,28.8332,-90.8320,29.99,11111222 
WAVCIS,ioos:station:WAVCIS:CSI15:1,2008-09-24T08:00:00Z,28.8332,-90.8320,29.97,11111222 